Theta_e
284 285 285 285 285 285 285 285 285 285 285 285 285 286 286 287 287 286 287 287 287 286 286 286 286 286 287 289 291 292 293 293 293 294 294 294 294 295 295 295 295 295 296 296 296 296 296 297 297 297 298 298 298 299 299 299 300 300 301 301 301 302 302 302 302 303 303 303 303 303 303 303 303 303 303 304 304 304 304 304 305 305 305 307 307 308
284 284 285 285 285 284 285 285 285 285 285 285 285 285 286 285 285 286 286 286 286 286 286 286 286 285 285 287 289 291 292 292 293 293 294 294 294 294 295 295 295 295 295 295 296 296 296 296 297 297 297 297 298 298 298 299 299 299 299 300 300 300 301 301 301 302 302 302 302 302 302 302 302 302 303 303 304 304 304 304 305 305 306 307 307 308
283 284 284 285 284 284 284 285 285 285 285 285 285 285 285 285 285 285 285 286 286 286 286 286 286 285 285 286 289 291 292 292 293 293 294 294 294 294 294 295 295 295 295 295 296 296 296 296 296 297 297 297 297 297 298 298 298 298 298 299 299 299 299 300 300 300 300 300 300 300 300 300 301 302 302 303 303 304 304 304 305 305 306 307 307 307
283 283 283 284 284 284 284 284 285 285 285 285 285 285 285 284 284 285 285 285 285 285 285 286 285 285 285 286 288 290 291 292 292 293 293 294 294 294 294 294 295 295 295 295 295 296 296 296 296 296 297 297 297 297 297 297 298 298 298 298 298 298 298 298 299 299 299 299 299 299 299 300 300 301 302 302 302 303 303 304 304 305 306 306 307 307
282 283 283 284 284 284 284 285 285 285 286 286 285 285 285 285 285 285 285 285 285 285 285 285 285 285 285 286 287 289 291 292 292 293 293 293 294 294 294 294 295 295 295 295 295 296 296 296 296 296 296 297 297 297 297 297 297 297 297 298 298 298 298 298 298 298 298 299 299 299 299 300 300 300 301 301 302 303 303 303 304 305 305 306 306 306
282 283 284 284 284 284 284 285 285 286 285 285 285 285 285 285 285 285 285 285 285 285 285 285 285 286 286 286 287 289 291 292 292 293 293 293 294 294 294 294 295 295 295 295 295 296 296 296 296 296 296 297 297 297 297 297 297 297 297 297 298 298 298 298 298 298 298 298 298 299 299 299 299 300 300 300 301 302 302 303 303 304 305 305 306 306
282 283 284 284 284 284 284 285 285 285 285 284 284 285 285 285 285 285 285 285 285 285 285 285 286 286 286 286 288 289 290 291 292 292 293 293 293 294 294 294 295 295 295 295 295 296 296 296 296 296 296 296 297 297 297 297 297 297 297 297 297 298 298 298 298 298 298 298 298 298 298 299 299 299 299 300 300 301 301 302 303 303 304 305 305 306
282 283 283 283 283 284 284 284 285 285 285 284 284 284 284 284 284 285 285 285 285 285 285 285 285 285 286 286 287 288 288 289 289 290 291 291 292 293 293 294 294 294 294 295 295 295 295 295 296 296 296 296 296 296 296 296 296 297 297 297 297 297 297 298 298 298 298 298 298 298 298 298 298 299 299 299 299 300 301 302 302 303 303 304 304 305
281 282 282 283 283 283 283 283 284 285 285 284 284 283 283 283 283 284 284 284 285 285 285 284 284 285 285 286 286 287 287 288 288 287 288 288 289 290 291 292 293 294 294 294 294 295 295 295 295 295 295 295 296 296 296 296 296 296 296 296 296 297 297 297 297 297 298 298 298 298 298 298 298 298 298 299 299 300 300 301 301 302 302 303 303 304
282 281 282 282 283 283 282 283 284 284 285 285 284 284 283 283 283 283 283 283 284 285 285 285 284 284 285 285 286 286 287 288 289 290 290 289 290 290 290 291 292 292 293 293 294 294 294 294 295 295 295 295 295 295 295 295 295 295 295 296 296 296 296 297 297 297 297 297 298 298 298 298 298 298 298 299 299 299 299 300 300 301 301 302 302 303
281 282 282 282 283 283 283 283 284 285 285 285 285 284 284 284 283 282 282 282 283 284 285 285 285 285 285 285 286 286 286 286 287 289 291 291 291 291 291 291 291 292 293 293 293 294 294 294 294 294 294 295 295 295 295 295 295 295 295 295 296 296 296 296 297 297 297 297 297 297 298 298 298 298 298 298 298 299 299 299 299 299 300 300 301 302
282 282 282 282 283 283 284 284 285 285 285 284 284 283 284 284 284 283 282 282 282 283 284 285 285 285 285 285 285 286 286 286 286 286 287 288 289 289 289 290 290 291 291 292 292 293 293 293 294 294 294 294 294 294 294 294 294 295 295 295 295 295 296 296 296 296 297 297 297 297 297 297 298 298 298 298 298 298 298 298 298 298 299 299 300 300
282 282 283 283 283 283 283 284 284 284 284 283 283 282 282 284 284 284 283 283 283 283 284 284 285 286 286 286 286 286 286 286 286 286 286 286 286 286 286 287 287 287 288 289 289 290 292 292 293 293 293 293 293 294 294 294 294 294 295 295 295 295 295 296 296 296 296 297 297 297 297 297 298 298 298 298 298 298 298 298 298 298 298 298 299 299
282 282 282 282 282 283 283 283 283 283 283 283 284 284 284 285 285 285 284 284 284 284 285 285 285 285 286 287 287 287 287 286 286 286 286 286 286 286 286 285 286 286 286 286 286 287 289 290 290 291 292 292 292 293 293 293 294 294 294 295 295 295 295 295 296 296 296 296 297 297 297 297 297 297 298 298 298 297 298 297 297 297 298 298 298 298
282 282 282 282 282 283 283 283 284 283 284 284 285 285 285 285 285 285 284 284 284 285 285 285 285 285 286 287 287 288 287 287 286 286 285 286 286 287 286 286 286 286 286 286 286 286 288 289 288 288 289 290 290 291 292 293 293 294 294 295 295 295 295 295 295 296 296 296 296 296 296 297 297 297 297 297 297 297 297 297 297 297 297 297 298 298
283 283 282 282 283 283 284 284 284 284 285 285 286 286 285 285 285 285 285 284 284 285 285 284 284 284 285 287 288 288 288 287 286 285 284 285 286 287 287 286 285 285 286 285 286 286 287 287 287 287 288 289 290 291 292 292 293 294 294 294 294 294 295 295 295 295 295 296 296 296 296 296 296 297 297 297 297 296 297 297 297 297 297 297 297 298
283 283 283 283 283 284 285 285 285 285 286 286 286 286 286 286 285 286 285 285 285 285 284 284 283 282 283 285 287 288 288 287 286 285 284 284 285 287 287 286 285 285 285 285 286 286 286 287 287 287 287 289 291 292 292 293 293 293 294 294 294 294 294 295 295 295 295 295 295 296 296 296 296 296 296 296 296 296 296 296 296 297 297 297 297 298
284 284 283 283 283 284 285 285 286 286 286 286 286 286 286 287 286 286 286 285 285 284 284 284 283 283 283 283 285 287 289 288 287 286 285 284 285 286 287 286 285 285 285 285 286 286 286 287 287 287 288 290 291 292 292 293 293 293 293 294 294 294 294 294 294 295 295 295 295 295 295 296 296 296 296 296 296 296 296 296 296 296 297 297 297 297
284 284 284 284 284 284 285 285 286 286 286 286 286 286 286 287 287 287 286 286 285 285 284 284 284 284 284 284 285 288 289 288 287 286 284 284 285 286 286 285 285 285 285 285 286 286 286 287 288 289 291 291 292 292 292 293 293 293 294 294 294 294 294 294 294 295 295 295 295 295 295 295 296 296 296 296 296 296 296 296 296 296 296 297 297 297
284 284 285 285 285 285 285 285 286 287 287 287 287 287 286 286 286 286 286 286 286 286 285 285 284 284 285 285 286 288 289 289 288 286 285 284 285 285 286 285 284 284 284 285 285 286 286 287 287 289 291 291 292 292 293 293 293 293 294 294 294 294 294 294 294 295 295 295 295 295 295 295 295 295 295 296 296 296 296 296 296 296 296 297 297 297
284 284 285 286 286 285 284 285 287 287 288 288 288 286 286 286 285 286 286 286 286 286 286 285 285 285 286 286 287 288 289 288 287 285 285 284 285 285 286 286 285 285 284 285 286 287 287 287 287 288 290 291 292 292 293 293 293 294 294 294 294 294 294 294 294 295 295 295 295 295 295 295 295 295 295 295 296 296 296 296 296 297 297 297 297 297
284 285 286 287 286 286 286 286 287 288 289 288 287 286 285 285 285 285 285 286 286 285 285 285 286 286 287 287 287 288 289 288 287 286 285 284 284 285 287 287 286 285 285 285 286 287 287 287 287 288 290 291 292 293 293 293 293 294 294 294 294 294 294 294 295 295 295 295 295 295 295 295 295 295 295 295 296 296 296 296 296 297 297 297 298 298
285 285 286 286 287 287 287 287 288 288 289 288 288 287 287 286 286 285 285 286 286 286 286 286 287 287 288 287 288 289 289 289 288 287 285 283 283 284 286 287 286 286 285 286 286 287 287 287 287 288 290 291 292 293 293 293 293 294 294 294 294 294 294 294 294 295 295 295 295 295 295 295 295 295 295 295 296 296 296 296 296 297 297 297 297 298
285 285 286 286 286 287 287 287 287 288 288 288 288 288 288 288 287 287 287 287 287 287 287 287 287 286 286 287 287 288 288 289 289 288 285 284 284 285 286 286 286 286 285 286 286 287 287 287 287 288 289 291 292 292 293 293 293 293 294 294 294 294 294 294 295 295 295 295 295 295 295 295 295 295 295 295 295 296 296 296 296 297 297 297 297 297
286 286 286 287 287 288 288 288 288 289 288 288 287 287 288 288 288 288 288 288 287 287 286 285 284 284 284 285 286 286 288 288 288 287 285 284 284 285 286 286 286 285 285 286 287 287 286 287 287 288 288 289 291 292 293 293 293 293 294 294 294 294 294 294 294 294 295 295 295 295 295 295 295 295 295 295 295 295 296 296 296 296 296 297 296 296
290 290 290 290 291 291 292 292 292 292 292 290 289 288 288 288 288 287 286 286 286 285 284 283 283 283 284 284 284 285 287 288 288 288 286 285 284 284 285 286 286 285 285 286 286 287 286 286 286 287 287 288 290 291 292 293 293 293 293 294 294 294 294 294 294 294 294 295 295 295 295 295 295 295 295 295 295 295 296 296 296 296 296 296 296 296
293 293 293 293 293 292 292 292 292 293 293 292 291 290 290 288 287 286 285 285 285 284 284 283 282 282 283 283 284 285 286 287 288 288 287 286 284 284 285 286 286 285 285 285 286 287 287 287 286 287 287 287 288 290 291 292 293 293 293 293 294 294 294 294 294 294 294 295 295 295 295 295 295 295 295 295 295 295 295 296 296 296 296 296 296 296
291 291 291 291 291 291 291 291 291 292 292 292 292 292 290 288 285 284 283 284 284 284 283 282 282 282 282 282 283 284 286 286 287 288 288 286 285 284 284 286 286 286 285 285 286 287 288 287 287 287 287 287 288 289 290 292 292 293 293 293 293 294 294 294 294 294 294 294 295 295 295 295 295 295 295 295 295 295 296 296 296 296 296 296 295 295
290 290 290 290 290 290 290 290 290 290 291 291 291 291 290 287 285 284 284 284 284 283 282 282 282 282 282 282 283 284 284 285 287 288 288 286 285 284 285 285 286 285 285 285 285 286 286 287 287 287 287 288 288 288 289 290 291 291 292 293 293 293 293 293 294 294 294 294 294 295 295 295 295 295 295 295 295 296 296 296 296 296 296 295 295 295
287 287 287 287 288 288 288 287 287 288 289 290 290 290 290 288 286 285 285 285 284 283 282 282 282 282 282 282 282 282 282 284 286 288 288 286 284 284 285 285 285 285 285 284 283 283 283 285 286 287 287 288 288 288 288 288 289 289 290 291 292 292 293 293 293 294 294 294 294 294 294 295 295 295 295 295 295 295 296 296 296 296 295 294 294 294
284 284 283 284 284 285 285 285 285 286 287 288 289 289 288 288 287 286 286 285 284 283 283 282 282 282 282 281 281 280 281 283 286 288 288 285 284 285 285 285 285 285 285 284 282 281 281 283 285 286 287 287 287 287 287 287 288 288 288 288 289 290 292 292 292 293 293 294 294 294 294 294 294 295 295 295 295 295 296 296 296 296 295 294 294 294
282 282 282 282 283 283 284 284 284 285 285 286 286 287 287 287 287 287 286 286 285 284 283 283 283 283 283 282 281 281 282 284 286 288 289 286 285 285 285 285 285 285 286 285 284 282 281 282 283 285 286 286 285 285 286 287 287 287 287 287 287 288 290 291 292 292 292 293 293 294 294 294 294 294 295 295 295 295 295 296 296 295 294 294 293 293
281 281 281 282 282 283 283 283 283 283 284 284 285 285 286 287 287 287 287 287 286 285 284 284 283 283 283 283 282 283 283 285 287 289 289 287 285 285 286 285 285 285 285 285 285 284 283 283 283 284 285 285 285 284 285 286 286 286 286 286 286 287 289 290 290 290 291 292 292 293 293 294 294 294 295 295 295 295 295 296 296 296 295 294 293 293
281 281 281 281 282 282 282 282 283 283 283 284 284 285 285 286 286 287 287 287 287 286 286 285 284 283 283 283 283 283 284 285 288 290 290 287 286 285 285 285 285 285 285 285 284 284 284 283 283 284 284 285 285 285 285 285 286 286 286 286 285 286 287 288 289 289 289 290 290 291 292 292 293 294 294 294 294 295 295 295 296 296 296 295 294 293
280 280 280 281 281 281 282 282 282 283 283 284 284 285 285 286 286 287 287 288 287 287 287 286 286 285 284 283 283 283 284 286 288 290 290 288 287 286 285 285 285 285 285 284 284 284 283 283 284 284 284 284 284 285 286 286 286 286 286 286 286 286 286 287 287 288 288 289 289 289 289 290 291 292 292 293 294 294 295 295 295 296 296 296 295 294
279 279 280 280 280 281 281 282 282 283 283 284 284 285 286 286 286 287 287 287 288 288 288 288 288 287 286 285 285 284 285 286 288 290 291 289 287 286 285 285 286 286 285 284 284 284 283 283 284 284 284 283 283 284 285 286 286 286 286 286 286 287 287 287 287 287 288 288 288 288 288 289 289 290 291 292 293 294 294 295 295 295 296 296 296 295
279 279 279 280 280 281 281 282 282 283 283 284 284 285 286 286 287 287 287 287 288 288 288 288 289 289 289 288 287 287 287 288 289 290 290 289 288 287 286 286 286 286 285 285 284 284 284 283 283 284 284 283 283 284 285 286 286 286 286 286 286 286 287 287 288 288 287 287 288 288 288 289 289 290 291 292 293 294 294 294 295 295 295 296 296 296
279 279 279 280 280 281 281 281 282 282 283 284 284 285 286 286 287 287 287 287 288 288 288 288 288 288 289 289 289 289 289 289 289 289 289 289 288 287 286 286 287 287 287 286 285 285 284 283 283 283 283 283 284 285 285 285 285 285 285 286 286 286 286 287 287 288 287 287 288 288 289 289 289 290 290 291 291 291 292 292 293 294 294 295 295 295
278 279 279 280 280 281 281 281 282 283 283 284 284 285 286 286 287 287 287 288 288 288 288 288 288 288 288 289 289 289 289 289 289 289 289 289 288 287 287 286 286 287 287 287 286 285 285 284 283 283 283 283 284 285 285 285 286 285 286 286 286 286 286 287 287 287 287 287 288 288 289 289 289 289 289 289 289 289 289 290 291 292 292 292 293 294
278 279 279 280 281 281 281 282 282 283 283 284 285 285 286 286 286 287 287 288 288 288 288 288 288 288 288 289 289 289 289 289 289 289 289 289 288 288 287 287 286 286 287 287 286 286 285 284 284 284 284 284 284 284 285 285 286 286 286 285 285 286 286 287 287 287 287 287 287 287 287 288 288 288 288 288 288 288 288 289 289 290 291 290 290 290
279 279 279 280 281 281 282 282 283 283 284 284 284 285 285 286 286 286 287 287 287 288 288 288 288 288 288 288 288 289 289 289 289 288 288 287 288 288 287 287 287 287 286 286 286 286 286 285 285 285 285 284 284 285 285 285 286 287 287 286 286 286 287 287 287 287 287 286 287 287 287 287 288 288 288 288 288 288 289 288 288 289 289 289 289 288
279 279 279 280 280 281 282 282 283 284 284 284 284 285 285 286 286 286 286 286 286 286 286 287 286 286 286 287 288 288 288 287 286 285 285 284 284 284 284 285 285 285 285 285 285 285 285 285 285 284 284 285 284 284 284 285 286 286 287 286 286 286 287 287 287 286 286 286 286 286 287 287 287 287 287 287 287 288 288 288 288 288 289 288 288 288
279 279 280 280 281 281 282 283 283 283 284 284 284 285 285 285 285 285 285 285 285 285 285 285 285 285 285 285 286 285 284 283 283 283 284 284 284 284 283 283 283 283 283 283 282 283 283 284 284 284 284 283 282 281 280 281 282 283 283 283 283 283 282 282 283 283 283 284 285 285 285 285 285 285 286 286 286 286 287 287 288 289 289 288 287 287
279 279 280 280 281 282 282 282 282 283 283 283 284 284 285 285 285 285 285 284 284 284 285 285 285 284 284 284 283 282 281 282 283 283 284 284 284 284 284 283 283 283 283 282 281 281 281 281 281 281 281 281 280 279 279 279 279 280 280 281 281 281 281 281 281 281 282 282 283 283 283 284 284 284 284 285 285 285 285 286 286 286 288 288 287 287
279 279 280 281 281 281 281 281 282 282 283 283 283 283 284 284 285 284 284 283 284 284 284 284 283 283 282 281 280 280 280 281 281 282 282 283 284 284 284 283 283 283 282 282 281 281 280 279 279 280 280 280 279 279 279 278 278 279 280 281 281 281 281 282 282 282 281 281 282 282 283 283 283 283 283 283 284 284 285 285 285 285 286 286 287 287
279 279 280 280 280 280 280 281 281 282 282 282 282 283 283 283 284 283 283 283 283 283 283 283 282 281 280 279 279 280 280 280 280 281 281 282 282 283 283 283 283 283 282 282 282 281 281 280 280 280 280 280 279 279 278 278 278 278 279 280 280 280 280 281 281 281 281 281 281 282 282 283 282 282 282 282 283 283 284 284 285 285 285 286 286 286
278 278 279 279 279 280 280 281 281 281 281 281 282 282 282 283 283 283 283 282 282 282 282 282 281 280 279 279 279 279 279 279 279 280 280 281 281 282 282 282 283 283 283 282 282 282 282 282 281 281 280 279 278 278 278 278 278 278 278 279 279 279 279 280 280 281 281 281 281 281 282 282 281 281 281 281 282 282 283 283 284 285 285 285 286 286
278 278 278 279 279 279 280 280 280 280 280 280 281 281 282 282 282 282 281 281 281 281 281 280 280 279 279 279 280 280 280 279 279 279 280 280 281 281 281 282 282 282 283 283 283 283 282 282 282 282 281 280 279 278 278 278 278 278 278 279 279 279 279 279 280 281 281 281 281 281 281 281 280 280 280 280 281 281 282 283 284 284 285 285 286 286
278 278 279 279 279 279 279 280 280 280 280 280 280 280 281 281 282 281 280 280 280 280 279 279 279 279 279 279 279 280 280 279 279 279 279 280 280 281 281 281 281 281 281 281 281 281 281 282 282 283 283 282 280 279 278 278 278 278 279 279 279 279 278 279 280 280 281 281 281 281 281 281 281 281 280 280 280 280 281 282 283 284 285 286 286 286
278 278 279 279 279 279 279 279 279 279 279 279 279 279 280 280 280 280 280 280 279 279 279 278 278 278 278 278 278 279 279 278 278 278 278 279 279 280 280 281 281 280 279 279 279 279 279 279 280 282 284 284 283 281 279 278 278 278 278 278 278 278 278 278 279 280 280 280 280 280 280 281 281 281 280 280 279 280 280 282 283 284 285 286 287 287
278 278 279 279 279 279 279 279 279 279 279 279 279 279 279 279 279 279 279 279 279 279 278 278 278 278 277 278 278 278 278 278 277 277 278 278 279 279 280 280 280 279 278 277 277 277 277 276 277 278 281 284 285 284 280 279 278 278 277 278 278 278 278 278 279 279 280 280 280 280 280 280 280 280 280 280 279 279 280 281 282 284 285 286 286 287
Wind_Speed
10 9 9 11 10 10 11 13 14 14 13 12 11 11 11 11 12 12 14 14 14 14 13 14 15 16 19 24 27 30 32 33 33 34 34 34 34 35 35 35 35 34 34 34 34 34 34 34 34 35 35 35 35 35 36 36 36 36 36 36 36 37 37 37 37 37 37 36 36 36 35 35 35 35 35 35 35 34 34 33 33 32 32 32 32 33
10 10 9 11 12 12 13 14 14 14 14 13 12 11 12 12 12 11 11 13 13 13 13 13 15 16 18 21 25 29 31 33 33 34 34 34 35 35 35 35 35 35 35 35 35 35 35 35 35 35 35 35 35 35 35 35 36 36 36 36 36 37 37 37 37 37 37 37 37 36 36 35 35 35 35 36 35 35 34 34 33 33 32 32 33 33
10 10 9 10 12 13 13 13 13 13 14 14 13 12 13 14 13 12 11 11 11 12 12 12 13 15 17 19 23 28 30 32 33 34 34 35 35 35 35 35 35 35 35 35 35 35 35 35 35 35 35 35 35 35 35 35 35 35 36 36 36 36 36 36 37 37 37 37 37 36 36 36 36 36 36 36 36 36 35 34 34 34 33 34 34 34
10 11 11 10 11 12 13 13 13 12 12 13 13 14 14 13 12 12 11 11 11 11 11 12 13 14 15 16 20 24 29 31 33 33 34 34 35 35 35 35 35 35 35 35 35 35 35 35 35 35 35 35 35 35 35 35 35 35 35 35 36 36 36 36 36 36 36 37 37 36 36 36 36 36 36 37 36 36 36 36 35 35 35 35 35 35
10 10 11 10 10 11 12 12 12 12 11 12 13 13 13 12 11 11 11 11 11 11 11 12 13 13 13 14 17 22 28 31 32 33 34 34 35 35 35 35 35 35 35 35 35 35 35 36 36 36 36 36 36 36 35 35 35 35 35 35 36 36 36 36 36 36 36 36 36 36 36 36 36 36 36 37 37 37 36 36 36 36 36 36 36 36
10 10 11 10 10 10 10 11 11 10 10 11 11 11 11 10 10 10 11 11 12 12 11 11 12 13 13 14 17 22 27 30 32 33 34 34 35 35 35 35 35 36 36 36 36 36 36 36 36 36 36 36 36 36 36 36 36 36 36 36 36 36 36 36 36 36 36 36 36 36 36 36 36 36 36 36 37 37 36 36 36 36 37 37 37 37
11 10 10 10 10 10 10 10 10 10 10 10 10 10 10 10 10 10 11 11 11 11 11 12 12 13 13 15 17 21 24 27 30 32 33 34 35 35 35 35 36 36 36 36 36 36 36 36 36 37 37 37 37 37 37 37 36 36 36 36 36 36 36 36 36 36 36 36 36 36 36 36 36 36 36 36 36 36 36 36 36 37 37 37 37 37
12 12 10 10 10 10 10 10 10 10 10 10 10 10 10 10 10 11 11 11 11 10 11 12 12 12 12 13 15 17 18 20 21 23 26 28 29 31 32 34 35 35 36 36 36 37 37 37 37 37 37 37 37 37 37 37 37 37 37 36 36 36 36 36 36 36 36 36 36 36 36 36 36 36 36 36 36 36 36 36 36 37 37 37 37 38
14 14 12 11 11 11 11 11 10 10 10 10 10 10 11 11 11 11 11 11 11 10 10 11 12 12 12 12 12 13 15 16 16 16 18 18 20 23 26 28 31 33 34 35 36 36 36 37 37 37 37 38 38 38 37 37 37 37 37 37 36 36 36 36 36 36 36 36 36 36 36 36 36 36 36 36 36 35 35 36 36 36 37 37 38 38
14 14 13 12 11 10 11 12 11 10 10 10 10 10 11 11 12 12 12 12 11 10 10 11 12 13 12 11 10 11 13 16 18 20 21 21 22 23 24 25 26 28 32 33 34 35 36 36 37 37 38 38 38 38 38 37 37 37 37 37 37 36 36 36 36 36 36 36 36 36 36 36 36 36 36 36 36 35 35 36 36 36 37 37 38 38
13 13 12 12 11 10 10 11 10 9 10 10 10 10 10 11 11 12 13 13 12 11 10 11 11 12 12 11 10 9 10 12 14 17 21 24 26 27 28 27 27 28 31 32 34 35 36 36 37 37 38 38 38 38 37 37 37 37 37 37 37 37 36 36 36 36 36 36 36 36 36 36 36 36 36 36 36 36 36 36 36 36 36 37 37 37
12 11 10 11 10 10 10 10 9 9 9 9 10 10 11 10 9 10 13 13 13 12 11 11 11 11 12 11 10 9 9 10 10 11 12 15 18 20 21 22 23 25 27 28 30 32 34 35 36 36 36 37 37 37 37 36 36 37 37 37 37 37 37 36 36 36 36 36 36 36 36 36 36 36 36 36 36 36 36 36 36 36 36 36 36 36
11 10 10 10 11 10 10 10 9 8 8 9 10 10 10 9 8 9 10 12 13 12 12 11 11 11 11 11 9 9 9 11 11 10 10 10 11 12 12 13 14 15 17 18 19 22 27 30 32 33 34 34 35 35 36 35 36 36 36 36 37 37 36 36 36 36 36 36 36 36 36 35 35 35 36 36 36 36 36 36 35 35 35 35 35 35
11 11 11 11 11 11 10 10 10 10 10 10 10 10 10 9 9 10 11 12 12 12 12 13 13 12 10 11 10 9 10 10 11 11 12 11 10 10 9 11 11 12 12 12 13 15 19 21 22 24 28 29 31 32 32 33 34 35 35 36 36 36 36 36 36 36 36 36 36 36 35 35 35 35 36 36 36 35 35 35 35 34 34 34 34 34
12 11 12 12 12 11 10 10 11 11 11 10 10 10 11 11 11 11 11 13 12 12 11 13 14 13 11 10 9 9 10 9 10 10 12 12 11 10 9 10 11 11 11 12 13 14 16 16 15 16 18 23 25 27 28 30 32 33 34 35 35 35 35 35 35 35 35 35 35 35 35 35 35 35 35 35 35 35 34 34 34 34 33 34 34 34
11 11 13 13 13 12 11 10 11 11 11 11 10 10 11 11 11 11 11 12 12 11 11 12 13 13 11 9 9 8 9 8 8 9 12 12 11 9 9 9 11 12 12 12 13 13 13 13 14 14 16 21 25 28 30 30 32 33 33 34 34 35 35 35 35 35 35 35 35 35 35 35 35 35 35 35 35 34 34 34 33 33 33 33 34 34
12 12 12 13 13 13 12 11 11 11 11 10 10 10 11 11 10 10 11 11 10 10 10 11 11 11 10 9 8 7 7 6 6 7 9 11 11 9 9 8 10 12 12 13 13 13 12 13 13 14 15 20 25 29 31 32 33 33 34 34 34 35 35 35 35 35 35 35 35 35 35 35 35 35 35 35 35 34 34 34 34 33 34 34 34 34
12 12 13 13 13 13 12 12 12 11 11 10 10 10 11 11 10 10 10 10 10 10 10 10 10 10 10 9 7 6 5 6 5 6 7 9 9 8 7 8 9 11 12 13 13 13 12 12 12 13 15 22 27 29 32 33 33 34 34 35 35 35 35 35 35 35 35 35 35 35 35 35 35 36 35 35 35 35 34 34 34 34 34 35 35 35
13 13 13 13 13 13 13 12 12 11 11 10 10 11 12 12 12 11 11 10 10 10 11 11 11 11 11 11 10 8 6 6 6 6 7 8 8 7 6 6 8 10 11 12 12 12 11 11 13 16 20 25 29 31 33 33 34 35 35 35 36 36 36 35 35 36 36 36 36 36 36 36 36 36 36 36 35 35 35 35 35 35 35 36 36 35
16 15 14 13 13 13 14 13 13 12 12 11 12 12 12 12 13 13 12 11 10 10 10 12 12 13 12 13 13 11 8 7 7 7 7 9 10 8 6 6 7 9 11 11 12 11 11 11 13 17 23 26 29 32 34 35 35 36 36 36 36 36 36 36 36 36 36 36 36 37 37 37 36 36 36 36 36 36 36 36 36 36 36 36 36 36
17 17 16 14 12 11 13 13 13 15 15 14 12 11 12 12 12 13 12 11 11 11 11 12 12 13 12 13 13 12 8 7 7 6 6 8 10 9 7 7 8 10 12 12 12 12 11 11 12 14 18 25 29 32 34 35 36 36 36 36 36 37 36 37 37 37 37 37 37 37 37 37 37 37 36 36 36 36 36 36 37 37 37 37 36 36
17 18 18 18 16 14 15 15 17 18 18 16 13 11 11 11 12 12 12 11 12 12 13 13 13 13 13 14 14 13 10 8 7 6 6 9 12 12 9 8 9 11 13 13 13 12 11 12 12 14 19 25 29 32 34 35 36 36 36 36 36 37 37 37 37 37 37 37 37 37 37 37 37 37 37 37 37 37 37 37 37 37 37 36 36 36
18 18 19 19 18 18 17 17 17 17 16 15 14 13 10 11 12 12 12 12 13 13 13 13 14 14 15 15 15 14 12 11 9 7 6 10 13 13 9 8 9 11 13 13 12 11 11 12 12 14 19 26 30 32 34 35 35 36 36 36 36 36 36 37 37 37 37 37 37 37 37 37 37 37 37 37 37 37 37 37 37 37 36 36 36 36
18 19 19 18 17 16 16 15 14 14 13 13 13 13 13 12 13 13 14 14 14 14 13 13 14 15 16 16 15 14 13 11 8 7 7 10 13 13 10 8 10 13 14 13 12 11 11 12 12 13 15 23 28 31 33 34 35 35 36 36 36 36 36 36 36 37 37 37 37 37 37 37 37 37 37 37 37 37 37 37 37 37 37 37 36 36
16 17 16 16 17 18 18 18 17 16 15 14 13 12 12 13 14 15 14 13 13 12 12 14 15 16 15 14 14 13 12 10 8 7 7 8 11 13 11 9 10 13 13 13 11 11 11 12 12 13 13 18 24 29 31 33 34 34 35 35 35 35 36 36 36 36 36 37 37 37 37 37 37 37 37 37 37 37 37 37 37 37 37 37 37 37
20 20 20 22 26 29 32 31 30 27 27 22 17 12 10 11 11 11 11 10 10 10 11 13 14 14 12 11 11 11 9 8 7 7 6 7 9 12 12 9 10 11 12 11 10 11 12 12 12 12 12 14 19 24 28 30 32 33 34 34 34 35 35 35 36 36 36 36 36 36 37 37 37 37 37 37 37 37 37 37 37 37 37 37 37 36
28 30 32 34 36 37 38 37 36 36 37 34 29 23 17 14 12 12 12 10 9 10 11 12 13 14 13 12 12 11 9 7 6 6 6 6 8 11 12 9 9 10 12 11 10 11 13 13 13 13 13 13 14 18 24 27 29 31 32 33 34 34 34 35 35 35 35 36 36 36 36 36 36 37 37 37 37 37 37 37 37 37 37 35 32 30
30 32 33 34 34 35 35 35 35 35 35 35 35 33 25 17 14 14 15 13 12 11 12 13 14 14 13 13 13 12 11 10 8 6 5 5 7 9 11 9 8 9 10 9 9 11 13 14 14 13 13 12 12 14 19 23 27 29 30 32 32 33 34 34 34 35 35 35 35 35 35 36 36 36 36 37 37 37 37 37 37 36 34 29 23 19
26 27 28 29 29 30 31 30 30 31 31 32 32 30 23 16 13 14 14 12 12 12 13 14 14 14 13 14 13 13 12 11 10 8 6 6 7 9 10 8 8 8 7 7 7 9 11 12 12 11 11 13 13 13 14 18 21 23 25 29 31 32 33 33 34 34 34 34 35 35 35 35 36 36 36 36 36 36 37 37 36 33 27 21 17 15
16 18 19 21 22 23 23 22 23 24 27 29 29 27 21 15 12 12 12 12 12 12 13 14 14 13 13 13 12 12 11 10 9 7 5 5 7 8 8 8 8 7 6 5 6 7 8 9 9 9 9 11 12 12 11 13 14 15 16 21 24 26 29 31 32 33 33 34 34 34 35 35 35 36 36 36 36 36 36 38 35 30 19 16 14 14
13 14 14 15 16 16 16 16 16 18 20 22 23 21 17 13 12 11 11 11 11 12 13 13 13 13 12 11 10 10 9 8 7 6 4 4 5 6 6 7 7 7 5 5 5 6 7 7 7 7 8 9 9 9 10 10 10 10 10 12 14 18 23 26 28 30 31 32 33 34 34 35 35 35 36 36 36 36 36 37 35 28 17 14 14 14
14 13 13 13 13 12 12 12 12 13 13 14 14 14 13 12 12 11 11 11 11 12 12 13 13 13 13 12 11 10 9 8 8 7 5 4 5 6 6 6 7 7 6 6 6 7 7 6 6 6 6 6 6 6 7 8 8 8 8 8 9 11 18 20 22 24 24 27 29 31 33 33 34 35 35 35 35 36 36 37 34 28 18 15 14 14
13 12 12 12 11 11 11 11 11 11 11 11 11 11 11 12 12 12 11 11 11 11 12 13 13 13 13 14 13 12 11 10 10 10 8 6 5 5 5 6 7 7 6 7 7 7 8 8 7 7 7 6 6 5 6 7 7 7 7 7 8 9 13 14 15 16 17 19 22 24 27 30 31 32 34 34 35 35 36 36 35 31 23 18 15 14
12 12 12 11 11 11 11 11 11 11 11 11 11 11 11 11 11 12 12 12 11 11 12 12 12 13 13 13 13 13 13 12 12 12 10 7 6 6 6 7 7 7 7 7 7 7 7 8 8 8 7 7 7 6 6 6 6 6 6 7 8 8 9 10 10 11 12 13 14 15 18 20 23 26 29 30 31 32 33 34 35 34 31 23 19 15
12 12 12 11 11 11 11 11 11 11 10 11 11 11 11 11 11 11 12 12 11 11 11 11 12 12 12 12 12 13 13 12 12 12 11 8 7 6 6 7 7 7 7 7 7 6 6 8 8 9 8 7 7 7 7 6 6 6 6 8 8 9 9 9 9 9 10 10 11 11 12 13 15 17 20 23 26 28 30 32 33 34 34 30 26 20
11 11 11 11 10 10 10 10 10 10 10 10 10 10 10 10 10 11 11 11 11 12 12 12 12 12 12 12 12 13 13 13 13 13 12 10 8 7 6 6 7 7 7 8 7 7 7 7 8 9 10 9 9 8 7 7 6 6 6 8 9 9 9 9 9 9 9 10 10 11 11 11 12 13 15 20 24 27 29 31 32 33 34 34 32 28
11 11 11 10 10 10 10 10 10 10 10 10 9 9 10 10 10 10 11 11 11 11 12 13 13 13 14 13 13 14 14 13 13 14 14 12 9 8 7 6 7 7 8 8 8 7 7 8 9 9 9 10 9 8 7 6 6 6 7 7 8 8 9 9 9 9 9 11 11 12 12 12 12 13 14 19 22 25 27 29 31 31 33 33 33 33
10 10 10 10 9 9 10 10 9 10 9 9 10 10 10 11 12 12 12 12 12 13 12 12 12 13 17 18 17 17 17 17 17 18 18 15 12 10 8 7 8 8 8 8 8 8 8 9 9 9 8 9 10 10 9 8 7 7 7 6 7 7 8 8 9 9 9 11 12 13 14 13 13 12 13 15 15 16 17 18 21 24 27 28 30 32
10 10 11 10 10 10 9 10 10 10 10 10 11 11 11 12 13 14 12 12 12 13 13 12 12 13 15 18 19 20 19 20 20 20 20 17 14 11 9 9 9 9 9 9 9 8 8 9 9 10 9 9 10 10 9 8 8 7 7 6 6 7 7 8 9 9 10 11 12 13 14 13 12 12 11 11 11 11 12 12 14 16 18 17 20 24
10 10 10 11 10 10 10 10 11 10 10 11 12 12 12 12 11 11 11 11 11 11 13 13 12 12 13 14 15 17 18 17 17 18 17 15 13 11 9 9 9 9 9 9 9 9 9 9 10 11 11 10 9 9 8 8 8 8 7 7 7 7 7 7 7 8 9 10 11 12 12 11 11 11 11 11 11 12 12 11 12 13 14 12 12 13
11 11 11 10 10 10 11 11 11 11 11 11 11 11 10 10 9 8 7 8 8 9 9 10 10 10 10 11 12 13 14 14 13 12 10 9 8 7 6 6 6 7 7 7 7 7 8 8 9 9 9 9 9 10 10 8 8 9 9 8 7 7 6 6 6 7 7 8 9 10 11 11 12 12 12 12 12 12 12 11 12 12 12 11 10 10
12 11 11 10 10 10 10 11 11 12 12 11 10 9 9 8 7 7 8 8 8 7 7 7 8 9 9 9 9 8 6 5 5 6 6 6 6 5 5 5 5 5 5 5 6 6 6 7 7 7 7 7 7 7 6 6 6 6 6 6 7 7 7 6 5 4 5 6 7 8 10 10 10 10 11 11 11 10 11 11 12 13 12 10 10 10
11 10 10 10 10 10 11 11 11 11 10 9 9 8 8 7 7 8 9 8 8 8 8 8 8 8 9 8 6 4 4 4 5 6 6 6 5 5 4 4 4 4 4 4 5 6 6 6 6 6 6 6 7 7 8 8 8 7 7 7 8 8 7 5 3 2 3 5 6 6 7 7 7 7 8 9 9 8 9 10 13 14 14 12 11 11
10 10 10 10 10 10 10 10 9 9 9 9 9 9 8 8 8 9 9 8 8 8 8 7 7 7 8 7 5 4 4 4 4 4 5 6 6 6 5 4 4 3 3 3 3 4 4 5 5 5 5 5 6 7 7 7 7 7 6 6 7 7 8 6 4 3 4 5 5 6 6 6 6 6 6 7 8 8 8 9 10 11 13 12 12 12
10 10 10 10 10 9 9 10 9 9 9 9 9 9 8 8 8 8 8 8 8 8 8 7 7 6 6 5 4 4 4 4 3 3 4 5 6 7 5 4 4 3 3 3 3 3 3 4 4 4 4 4 5 5 6 6 6 7 7 7 7 7 7 6 6 5 5 5 5 5 6 6 6 6 7 7 7 8 8 9 9 10 11 12 12 13
9 9 10 10 9 10 10 10 10 9 9 9 9 9 8 8 8 8 8 8 8 8 8 7 6 5 5 5 5 5 5 4 4 3 3 4 4 4 4 4 3 3 3 2 2 2 3 3 4 5 5 4 4 4 5 5 6 6 6 7 6 6 6 6 6 6 6 6 6 6 5 5 5 5 6 6 7 7 7 8 9 10 11 11 12 12
10 10 10 10 10 10 10 10 10 9 9 9 9 9 8 8 8 8 8 8 8 8 8 7 6 5 6 5 5 5 5 5 5 4 4 4 4 4 3 3 4 4 3 3 3 3 3 4 5 5 5 4 4 4 4 4 5 6 6 6 6 6 6 5 5 5 5 5 5 5 5 4 4 5 5 5 5 6 6 7 8 9 10 10 11 12
10 10 10 10 10 10 10 10 9 9 10 9 9 9 8 8 9 9 8 8 8 7 7 7 6 6 6 6 5 6 6 6 5 5 5 4 4 4 4 4 4 4 4 4 4 4 4 4 5 5 5 4 4 4 4 5 5 5 6 6 6 6 6 5 5 5 5 5 6 6 5 4 4 4 4 4 5 5 6 6 7 8 9 10 11 12
10 10 10 10 10 10 10 10 10 10 10 10 10 9 9 9 10 10 8 8 7 7 7 7 7 7 7 6 6 7 7 7 6 5 5 5 4 4 4 4 4 4 3 3 3 3 3 4 4 5 5 4 4 4 5 5 5 5 5 5 5 6 6 6 6 6 5 6 6 6 5 4 3 3 4 5 5 6 7 8 8 8 8 9 10 11
10 9 10 10 10 10 10 10 10 10 10 10 10 9 9 8 8 8 7 7 7 6 6 7 7 7 7 7 7 7 7 7 6 6 6 5 5 5 5 5 4 4 3 3 2 2 3 3 3 4 5 5 6 5 4 5 5 5 5 5 5 5 5 6 6 6 6 6 6 6 5 4 3 3 4 5 6 7 8 8 8 8 7 8 9 10
10 10 9 9 9 9 9 9 9 9 10 10 10 9 9 8 8 7 7 7 7 6 6 6 6 7 7 7 7 7 7 7 6 6 6 6 5 5 5 5 5 4 3 3 3 3 3 3 3 3 4 6 8 7 4 4 5 5 5 5 5 5 5 5 5 6 6 6 5 5 5 5 5 5 5 5 6 7 7 7 8 8 8 8 8 9
Wind_Direction
281 284 284 284 284 283 281 279 280 282 282 281 279 279 279 276 274 272 272 271 270 270 270 269 269 270 271 271 272 272 272 273 273 273 273 273 273 273 273 273 273 272 272 272 272 272 272 272 272 272 272 272 273 273 273 273 273 273 273 273 274 274 274 275 275 275 275 275 276 276 276 276 276 276 275 274 273 272 272 272 272 273 274 275 276 276
279 281 282 283 283 282 281 280 279 278 280 280 279 278 278 276 275 273 271 269 267 266 267 267 268 268 267 268 269 270 270 271 271 271 271 271 271 271 271 271 271 271 271 271 271 271 271 271 271 271 271 271 271 271 271 271 271 271 272 272 272 273 273 273 274 274 275 275 276 276 276 276 276 276 276 275 274 273 272 272 272 272 273 273 274 275
282 282 280 280 279 279 279 280 278 276 276 277 277 276 276 275 274 273 271 269 266 264 263 263 265 266 266 266 267 268 268 269 269 269 270 270 270 270 270 270 270 270 270 270 270 269 269 269 269 269 269 269 269 269 269 269 269 270 270 270 270 271 271 272 272 273 274 274 275 275 275 275 275 275 275 275 274 273 272 272 271 271 272 272 272 272
279 280 280 280 277 274 274 278 278 277 274 275 275 274 273 272 271 271 270 269 267 265 262 260 261 262 264 264 265 265 266 266 267 267 267 268 268 268 268 268 268 268 268 268 268 268 268 268 268 268 268 268 268 268 268 268 268 268 268 268 268 269 269 270 270 271 272 272 273 273 273 273 273 273 273 273 273 272 271 270 270 270 270 270 270 270
275 276 279 280 278 276 274 276 277 277 276 274 273 273 270 269 269 269 269 268 266 265 262 259 258 258 259 260 262 263 263 264 265 265 265 266 266 266 266 267 267 267 267 267 267 267 267 267 267 268 268 268 267 267 267 267 267 267 267 267 267 267 267 268 268 269 269 270 271 271 272 272 272 272 271 271 271 270 270 270 269 269 269 269 269 269
274 274 277 277 276 277 278 276 276 277 277 275 273 270 268 267 267 268 268 267 265 264 263 261 258 257 256 257 259 260 261 262 263 264 264 264 265 265 265 266 266 266 266 266 266 266 266 267 267 267 267 267 267 267 267 267 267 266 266 266 266 266 266 266 267 267 268 269 269 270 270 271 271 270 270 270 270 269 269 269 269 268 269 269 269 269
275 273 274 274 273 274 276 276 275 276 277 277 276 273 270 268 266 265 265 265 264 264 265 264 262 259 257 257 258 259 260 262 262 263 263 264 264 264 265 265 265 265 266 266 266 266 266 266 266 266 267 267 267 268 268 267 267 267 267 266 266 266 266 266 267 267 268 268 269 269 270 270 270 270 269 269 269 268 268 268 268 268 268 268 268 268
277 275 272 273 274 275 274 272 272 272 273 275 276 276 274 271 268 266 264 263 262 262 264 264 263 260 257 256 255 256 257 259 261 262 262 263 263 263 263 264 264 264 264 265 265 265 265 265 266 266 266 267 267 268 268 268 268 268 267 267 267 267 267 267 267 267 268 268 268 268 269 269 269 269 269 268 268 268 267 267 267 267 268 268 268 268
275 277 275 272 273 275 276 273 269 267 267 267 269 271 273 273 272 269 267 264 260 258 259 262 263 261 257 254 253 252 253 254 254 254 256 256 257 258 260 261 261 262 262 262 263 263 264 264 264 265 265 266 266 267 267 267 267 268 267 267 267 267 267 267 267 267 267 268 268 268 268 268 268 268 268 268 268 267 267 267 267 267 267 267 267 267
270 272 274 271 269 268 272 273 271 266 261 262 262 263 266 270 272 273 270 267 263 259 257 259 261 263 262 257 252 250 251 251 251 251 251 251 251 252 253 255 256 257 258 259 260 261 261 262 262 263 264 264 265 265 266 266 266 266 266 267 267 267 267 267 267 267 267 267 267 267 267 267 267 267 267 267 267 267 266 266 266 266 266 267 267 267
268 268 270 270 267 264 263 268 270 268 262 261 260 259 257 259 264 268 270 269 266 262 258 257 258 260 263 262 256 250 248 251 251 251 252 252 252 252 253 253 253 254 255 256 257 258 259 259 260 261 262 262 263 263 264 264 264 264 265 265 265 266 266 266 266 266 266 266 266 266 266 266 266 266 266 266 266 265 265 265 265 265 265 266 266 267
267 268 267 268 269 268 266 267 268 267 263 262 262 260 256 252 253 257 263 266 267 266 264 261 258 256 258 261 260 256 251 251 251 251 250 251 251 251 252 253 253 253 254 255 256 257 257 258 259 259 260 261 261 261 262 262 262 262 263 263 263 264 264 264 264 265 265 265 265 265 265 265 265 265 265 265 264 264 264 264 264 264 264 265 265 266
265 267 267 268 268 269 270 271 270 268 262 260 260 262 262 258 254 254 257 262 264 265 266 265 262 258 254 254 255 256 254 253 252 250 248 247 245 244 246 248 250 251 252 253 254 255 256 257 258 258 259 259 260 260 260 260 260 260 261 261 262 262 263 263 263 263 263 264 264 264 264 264 264 264 264 264 263 263 263 263 263 263 264 264 264 265
266 267 267 268 267 267 267 268 268 267 263 260 259 261 263 263 261 259 260 261 262 263 265 265 265 263 259 254 252 252 254 255 255 253 251 247 243 239 238 242 243 244 245 248 249 249 250 252 254 256 257 257 258 259 258 259 259 259 259 260 260 261 261 262 262 262 262 263 263 263 263 263 263 263 263 263 263 262 262 262 263 263 263 263 264 264
268 270 269 269 268 268 267 267 267 266 264 263 263 264 266 264 262 260 261 264 265 266 267 268 267 266 262 257 253 251 251 253 254 255 254 252 246 239 236 241 243 243 241 244 246 247 246 246 248 250 252 253 253 254 254 256 257 257 258 258 259 259 260 260 261 261 262 262 262 263 263 263 263 263 263 263 263 262 262 262 262 262 263 263 263 263
270 270 270 271 271 270 268 267 267 267 267 266 265 265 266 264 262 260 260 264 267 268 268 270 270 270 265 257 251 247 246 248 250 252 254 255 251 242 234 240 243 244 242 243 244 245 243 241 242 244 246 248 250 251 252 253 254 255 256 257 258 258 259 260 260 260 261 261 262 262 262 262 262 263 263 263 262 262 262 262 262 262 262 262 263 263
270 270 270 271 272 271 269 267 266 266 267 267 265 263 261 261 261 260 259 262 264 265 263 266 270 273 274 267 255 242 236 241 245 248 252 256 253 245 231 235 240 243 243 243 243 243 241 240 240 241 242 245 248 250 251 252 253 254 255 256 257 258 258 259 259 260 260 260 261 261 261 262 262 262 262 262 262 262 261 261 261 261 262 262 262 262
269 269 270 270 270 271 271 269 267 267 268 267 266 264 260 259 259 259 258 259 261 262 263 263 265 269 275 277 271 255 241 246 250 252 254 257 255 247 230 229 236 241 244 245 244 243 242 242 240 240 242 247 249 251 252 253 254 255 255 256 257 257 258 258 259 259 259 260 260 260 261 261 261 261 261 261 261 261 260 260 260 260 261 261 261 261
269 268 268 268 269 269 269 268 268 269 268 267 267 267 265 261 259 258 257 257 258 259 261 263 263 264 268 270 272 270 260 260 260 260 259 260 258 252 232 228 235 241 244 245 245 245 244 244 242 243 245 248 250 251 253 254 255 255 256 257 257 257 258 258 258 258 259 259 259 260 260 261 261 261 261 260 260 260 260 260 260 260 260 260 260 260
268 266 264 266 268 269 267 266 266 266 266 267 268 268 266 266 264 263 262 261 260 260 261 263 264 264 265 269 270 270 266 264 263 262 261 264 263 257 239 232 236 242 244 245 244 243 242 242 244 245 246 248 250 251 253 254 255 256 256 257 257 258 258 258 258 258 259 259 259 260 260 261 261 261 260 260 260 260 260 260 260 260 260 260 259 259
264 263 261 263 267 269 267 266 265 266 267 269 269 268 266 266 265 265 264 265 264 263 262 261 262 263 265 268 269 270 267 264 263 263 263 264 261 256 244 237 238 243 246 247 246 244 242 242 242 243 244 247 248 250 252 253 254 255 256 256 257 257 257 258 258 258 258 259 259 259 260 260 260 260 260 260 260 260 260 260 260 260 260 259 259 258
261 262 263 263 264 265 268 268 268 269 270 271 270 267 266 267 267 267 267 266 265 264 263 262 263 265 267 268 269 270 268 263 260 261 265 264 262 259 251 245 246 248 250 250 249 246 243 243 243 243 244 246 247 249 250 252 253 254 254 255 255 256 256 257 257 257 258 258 258 259 259 259 260 260 260 260 260 260 260 260 260 260 259 259 258 258
260 263 266 266 265 265 267 269 271 272 272 271 268 266 266 267 269 269 268 267 266 266 266 267 268 268 267 267 269 269 265 260 257 256 259 261 262 262 259 252 251 252 252 252 251 249 245 244 244 244 246 246 247 248 250 251 252 253 253 254 254 255 255 256 256 256 257 257 258 258 258 258 259 259 259 259 259 260 260 260 260 259 259 259 258 258
259 262 265 266 265 265 267 269 271 272 271 268 266 265 264 265 266 266 267 267 268 268 269 270 270 268 265 264 265 265 261 256 252 250 251 258 262 264 263 257 254 254 254 253 252 251 249 247 245 245 246 247 248 249 250 251 252 253 253 254 254 254 255 255 256 256 256 257 257 257 258 258 258 258 259 259 259 259 260 260 260 260 260 259 259 259
260 261 263 264 264 265 267 270 272 272 270 268 266 265 266 266 265 265 265 265 266 267 268 267 267 266 266 265 265 263 260 253 247 243 245 256 262 264 262 256 254 255 256 255 254 252 252 251 249 248 248 249 249 250 251 252 252 253 254 254 254 255 255 255 255 256 256 256 257 257 257 258 258 258 259 259 259 260 260 260 260 261 261 261 261 261
272 272 273 274 276 278 281 282 282 280 278 278 277 276 275 273 270 266 263 261 261 264 265 264 264 265 267 267 265 264 262 254 244 238 239 252 261 262 260 254 252 254 258 258 256 253 252 253 252 251 249 250 250 251 251 252 253 253 254 254 254 255 255 255 255 256 256 256 256 257 257 258 258 259 259 260 260 261 261 261 261 261 262 262 262 263
282 282 283 284 285 286 287 288 287 285 284 284 285 285 285 282 278 274 269 267 268 270 270 269 270 271 273 270 268 267 268 262 250 238 233 246 256 259 257 254 252 254 258 259 257 253 252 253 253 252 250 250 250 251 252 252 253 254 254 254 254 255 255 255 255 255 256 256 256 256 257 258 258 259 260 260 261 261 261 261 262 262 262 263 263 263
281 281 282 283 284 285 286 286 286 285 285 285 285 285 284 282 278 276 275 276 277 274 271 272 274 276 278 276 275 274 273 267 260 249 237 243 251 255 257 255 253 253 256 260 259 255 252 252 252 252 251 250 250 251 252 252 253 253 254 254 254 254 254 254 255 255 255 255 255 256 256 257 258 259 260 260 261 261 262 262 262 262 262 262 261 261
280 281 282 283 285 286 287 288 287 286 286 285 284 283 281 277 273 272 275 277 276 272 268 269 271 273 276 277 278 277 273 266 262 257 247 247 251 255 258 258 255 253 254 261 262 258 252 250 250 250 251 250 249 250 251 251 251 252 253 253 253 253 253 254 254 254 254 254 255 255 256 257 257 258 259 260 260 261 261 261 262 262 262 260 259 258
288 290 290 290 290 290 289 289 287 286 285 283 282 281 278 272 268 268 272 272 269 267 266 267 267 269 272 275 276 274 268 262 258 254 246 248 253 257 259 259 256 253 252 259 263 261 255 251 247 245 245 246 245 245 245 245 245 247 249 250 251 251 252 252 252 252 253 253 254 254 255 256 256 257 258 259 259 260 260 261 261 261 260 258 257 257
300 298 295 293 291 290 288 285 284 283 282 282 281 279 275 269 265 263 265 263 262 262 263 264 264 265 265 268 269 269 268 264 260 254 242 247 255 260 260 260 257 253 245 246 255 262 264 259 252 244 241 241 240 239 238 238 238 238 240 244 246 248 249 249 250 251 251 252 252 253 254 255 255 256 257 258 258 259 259 260 260 259 259 257 257 257
300 297 293 291 290 288 286 284 282 281 280 279 277 274 270 265 262 259 258 257 256 256 258 260 260 260 259 259 261 264 268 270 268 263 252 253 257 260 256 257 256 253 242 237 242 253 264 267 264 256 248 246 242 239 237 235 234 233 233 236 241 245 246 247 248 249 250 251 251 252 253 254 255 255 256 256 257 258 258 259 259 258 257 256 256 257
297 294 291 290 288 285 283 281 280 278 277 275 273 270 267 264 261 258 256 253 252 251 252 255 257 257 257 257 258 260 264 268 269 267 260 257 258 259 253 251 251 250 245 239 239 244 254 262 267 268 263 257 253 248 243 238 235 232 229 232 237 243 245 244 245 246 247 249 250 251 252 253 254 255 255 256 256 257 258 258 258 257 257 256 256 257
293 291 289 287 285 282 280 278 277 275 274 272 270 269 267 264 261 258 256 253 251 249 249 250 253 255 257 258 258 260 262 264 264 263 259 255 255 258 255 250 248 248 248 245 242 243 249 254 260 265 267 263 259 255 251 245 238 232 225 227 233 239 242 240 241 242 244 245 247 249 250 251 253 253 254 255 255 256 257 257 257 257 257 256 256 256
290 289 288 287 285 282 281 279 277 275 273 271 270 269 267 265 263 260 258 256 253 251 249 249 250 251 254 257 260 263 264 265 265 263 260 254 254 257 256 249 247 247 250 249 247 247 251 252 254 256 262 264 262 257 252 248 241 234 227 226 229 234 238 237 237 239 242 242 243 244 245 248 249 251 252 252 253 254 254 255 256 256 256 256 256 256
289 289 289 288 287 285 283 282 281 279 276 274 272 271 269 267 266 264 262 260 258 256 254 252 251 251 251 254 258 262 266 269 269 267 263 256 253 252 254 250 247 246 250 252 251 251 254 255 254 253 256 260 262 261 257 250 244 237 233 230 231 233 235 234 234 235 239 240 242 242 243 244 245 246 247 249 251 252 253 254 255 255 256 256 256 255
289 289 289 289 289 288 288 287 285 284 282 281 279 277 275 273 271 269 267 264 263 261 259 258 256 254 253 253 255 259 264 267 268 266 262 257 253 250 252 252 248 245 246 250 251 252 253 256 257 256 254 254 257 261 263 259 253 245 239 234 232 233 235 233 232 231 234 238 240 241 242 243 243 244 245 248 249 250 252 253 253 254 255 255 255 255
290 291 292 292 292 292 291 290 289 288 287 287 285 283 281 278 276 274 272 269 267 265 264 262 260 259 256 256 257 258 261 264 265 264 262 258 254 250 249 252 249 245 242 246 249 250 250 253 256 257 256 254 255 258 262 263 260 256 250 241 235 232 234 233 230 230 232 236 239 241 242 241 242 242 244 246 246 248 250 251 251 252 253 254 254 254
292 293 295 296 297 296 295 293 292 291 290 288 286 284 282 279 277 275 273 272 269 267 266 265 264 264 261 261 260 260 261 262 262 261 260 257 254 250 247 249 249 247 244 245 245 246 247 250 253 256 259 260 260 259 259 259 259 259 259 254 247 239 234 231 230 230 231 234 237 240 242 241 241 241 242 242 243 244 246 248 248 249 250 251 253 254
295 296 297 298 298 296 294 293 292 291 290 287 284 282 280 278 276 274 273 272 271 270 269 268 268 267 266 265 264 263 262 261 261 260 260 259 256 252 250 250 251 250 249 247 245 245 246 250 253 255 258 262 266 267 265 262 260 260 262 262 257 249 238 232 230 230 230 232 235 238 241 241 240 240 240 241 241 241 242 244 246 247 246 246 248 251
297 298 299 298 297 295 292 291 290 289 288 286 284 282 280 280 280 281 281 279 278 277 278 276 275 273 270 267 266 266 267 270 273 275 278 281 282 281 274 269 267 266 265 262 260 257 256 260 263 264 265 268 270 271 270 270 271 271 269 267 268 268 264 250 240 235 234 236 237 238 241 243 243 243 242 242 241 241 241 243 246 248 247 243 241 242
298 298 299 298 297 295 293 291 289 288 285 284 283 283 285 288 292 294 294 293 291 291 290 289 287 285 282 277 275 277 292 313 329 338 341 339 336 330 317 307 302 301 299 295 291 287 284 284 284 285 286 290 290 290 291 294 296 296 293 291 294 296 292 275 260 249 247 249 247 245 245 246 246 245 244 244 245 244 244 243 245 247 248 245 242 239
297 296 295 295 294 293 292 292 291 290 289 288 288 290 293 296 299 299 298 298 297 298 298 297 295 293 292 292 300 322 348 343 342 344 344 340 335 330 324 318 314 311 309 302 297 294 295 296 297 301 309 315 315 311 308 306 304 301 298 298 299 297 290 286 289 292 271 263 260 257 253 252 252 252 251 251 251 251 250 250 249 249 248 247 245 243
293 293 293 294 294 294 294 295 296 296 297 297 296 297 298 301 301 301 301 299 300 301 303 304 302 300 298 304 315 327 322 314 315 320 326 332 336 336 332 327 324 322 319 314 312 313 315 312 311 312 318 314 307 299 294 295 295 294 289 286 281 276 273 280 288 288 272 265 262 259 257 257 258 259 259 256 254 252 250 249 249 248 248 247 246 245
292 294 296 297 299 300 300 300 300 301 301 300 300 301 303 305 306 306 304 303 304 305 307 310 309 308 309 316 318 315 310 311 315 320 320 330 336 338 336 334 334 336 337 334 330 324 322 316 311 304 299 291 287 286 289 293 294 294 292 290 283 276 272 278 282 282 276 272 267 262 258 258 258 258 257 253 250 248 245 245 245 245 245 243 242 241
296 299 301 302 303 303 302 302 303 304 303 303 304 305 308 310 310 308 307 307 308 309 310 312 312 312 313 314 314 313 314 316 319 321 321 324 326 328 327 325 323 320 317 311 303 297 297 301 302 303 302 296 290 285 285 290 293 294 295 295 292 287 283 282 282 280 279 278 277 273 269 263 259 255 254 254 253 250 246 244 243 244 244 242 240 239
302 303 304 304 304 304 304 305 306 307 307 308 309 311 313 314 313 312 311 313 313 312 312 314 313 311 309 311 313 316 317 318 321 322 323 320 318 315 310 306 303 298 289 286 287 289 292 296 300 304 307 307 303 298 293 293 294 295 297 298 297 295 293 292 291 289 287 285 284 283 281 271 263 258 259 262 263 261 256 250 247 246 245 244 243 242
304 304 305 305 306 306 307 309 310 311 311 311 313 315 317 318 319 319 317 318 317 316 317 319 318 316 314 316 318 320 321 321 321 321 321 320 317 313 309 303 297 292 285 281 281 282 285 289 294 298 304 310 312 312 311 310 306 303 301 303 304 303 301 301 300 297 293 289 287 285 283 275 269 270 275 278 278 276 273 268 262 257 253 251 249 247
304 304 305 306 306 308 309 311 313 313 314 315 317 318 319 319 321 321 320 320 320 320 321 323 323 322 321 323 324 326 327 325 323 321 321 321 318 316 312 309 305 301 296 293 292 290 290 288 289 294 309 323 327 326 322 320 316 312 309 310 310 310 308 305 303 302 299 295 291 288 284 279 277 281 291 297 297 293 289 283 278 273 267 262 257 253
304 305 305 306 307 308 310 313 314 316 316 318 319 319 319 320 322 322 321 320 321 322 322 324 324 323 323 325 328 329 330 327 325 324 324 324 323 321 317 316 316 317 317 318 319 319 315 305 294 298 319 342 350 348 334 329 324 320 318 318 317 315 312 308 306 305 304 300 298 298 298 302 308 315 320 312 303 297 292 288 285 282 280 275 268 261
307 307 308 308 308 308 310 313 316 317 318 319 319 319 319 320 322 323 323 324 324 324 324 325 325 325 325 327 329 330 331 328 327 327 327 326 325 323 322 327 331 334 334 334 335 334 330 324 312 311 326 349 0 5 355 341 333 329 327 325 321 318 314 311 308 307 306 304 305 309 319 333 340 342 335 319 307 300 297 296 296 298 301 299 292 283